Showing default

COSMOS 382, 4786

Orbit data source: Space-Track

COSMOS 382, 4786 is a payload satellite owned by TsKBEM (CIS) in LEO that was launched on Wed, 02 Dec 1970 UTC via a PROTON-K/D launch vehicle from the Tyuratam Missile And Space Complex (TTMTR). Payload-class satellites include a variety of spacecraft equipped with specific instruments for various scientific and technological missions. These include communications satellites like Starlink; space stations such as the ISS; scientific satellites like the Hubble; Earth observation satellites from companies like Planet Labs, Umbra, and HawkEye 360; GPS; miniature CubeSats for education and research; and military/defense satellites.

Loading next visibility...
Identifier
4786, 1970-103A
Orbit
LEO
Country
Flag of CISCIS
Related business
Manufacturer
TsKBEM
Mission
Spacecraft
Bus & Motor
7K-L1E, Unknown motor
Mass
~19,040 kg wet, ~2,800 kg dry
Launch date (UTC)
1970-12-02 (55 years ago)
Launch vehicle
PROTON-K/D
Launch site
Tyuratam Missile And Space Complex (TTMTR)
Object type
Payload
Rocket body
Debris
Shape & HBR
Unknown
Radar Cross Section
Large (>1 m²)

Expand to show TLE details & history
Last TLE update: 22 hours ago

TLE from 22 hours ago
0 COSMOS 382
1 04786U 70103A   25305.62322241 -.00000023  00000-0  00000-0 0  9999
2 04786  55.8635 191.8644 1358908 210.4973 153.8287  8.42041861689407
Epoch: 2025-11-01T14:57Z
TLE epoch observation values (Epoch: 2025-11-01T14:57:26.416Z)
Latitude
8.46304°
Longitude
-67.87629°
Altitude
5,103.244 km
Speed
5.513 km/s
True Right ascension
13h 10m 32s
True Declination
8° 25' 55"
Sunlit
Object was in daylight at epoch
Visualization orbit readout
Latitude
Unknown
Longitude
Unknown
Altitude
Unknown
Speed
Unknown
Apparent Right ascension
Unknown
Apparent Declination
Unknown
Sunlit
N/A
Visualization observer readout
Local Sidereal Time
08:56:16
Azimuth
Unknown
Elevation
Unknown
Doppler factor
Unknown
Orbital elements
Apogee altitude
5,214.378 km
Perigee altitude
2,440.668 km
Semi-major axis
10,205.66 km
Eccentricity
0.13589
Inclination
55.8635°
RAAN
191.8644°
Arg. of periapsis
210.4973°
True anomaly
159.77406°
Mean anomaly
153.8287°
Eccentric anomaly
156.88527°
Mean motion
2.10514 °/min
Orbital period
171.01 mins
BSTAR
0
Loading maneuver chart data...
Computing Atmospheric mass density...
Loading historical data...
Loading historical data...
Loading historical data...
Loading historical data...
Loading historical data...
Loading historical data...
Loading historical data...

Documentation

Showing up to 5 results
|